Location: Lake Sonoma
(38.7200°N, 123.0564°W)
Time: 18:57:59
(UTC-08:00)

Amateur Radio Satellites - All Passes

Search period start: 23 January 2017 18:27
Search period end: 24 January 2017 18:27
Location: Lake Sonoma, 38.7200°N, 123.0564°W

Satellite Date Start Highest point End Downlink Frequencies (MHz)
Time Altitude Azimuth
AIST 2 23 Jan 18:28:12 18:32:14 59° 117° (ESE) 18:36:20 435.215
NOAA 18 23 Jan 18:28:49 18:34:16 66° 258° (WSW) 18:39:44 137.9125
Cosmos 2499 23 Jan 18:30:53 18:38:16 36° 88° (E) 18:45:13 435.465 / 435.565
CINEMA 3 23 Jan 18:41:59 18:46:22 83° 80° (E) 18:50:37 145.822/145.860
CUTE-I 23 Jan 18:51:29 18:55:34 22° 266° (W) 18:59:39 437.470
LilacSat-2 23 Jan 18:51:51 18:53:06 11° 269° (W) 18:54:21 437.200
CUTE 1.7 + AOD 2 23 Jan 18:57:34 19:01:46 67° 76° (ENE) 19:06:03 437.475
STRAND 1 23 Jan 19:02:27 19:07:11 36° 98° (E) 19:11:53 437.568
CUBEBUG 2 23 Jan 19:11:49 19:15:39 37° 72° (ENE) 19:19:29 437.445
FUNcube-1 23 Jan 19:18:34 19:20:56 15° 66° (ENE) 19:23:20 145.935
CANX-2 23 Jan 19:27:50 19:31:54 45° 261° (W) 19:36:01 2200.000
COMPASS 1 23 Jan 19:28:45 19:32:53 65° 76° (ENE) 19:37:05 437.405
SEEDS 23 Jan 19:30:38 19:34:52 76° 259° (W) 19:39:07 437.485
UWE-3 23 Jan 19:32:09 19:36:00 39° 73° (ENE) 19:39:53 435.000/436.395/437.385
AAUSAT CUBESAT 2 23 Jan 19:36:08 19:40:14 60° 75° (ENE) 19:44:23 437.432
ZACube-1 23 Jan 19:42:28 19:46:06 30° 70° (ENE) 19:49:45 437.345
HO-68 23 Jan 19:52:11 19:58:57 43° 261° (W) 20:05:45 435.675
AIST 2 23 Jan 20:08:38 20:11:04 15° 315° (NW) 20:13:33 435.215
Oscar 11 23 Jan 20:10:59 20:15:12 56° 74° (ENE) 20:19:28 145.826/435.025
GONETS M04 23 Jan 20:14:37 20:23:14 65° 280° (W) 20:31:58
DELFI C3 23 Jan 20:20:30 20:23:36 22° 69° (ENE) 20:26:44 145.870
Cosmos 2499 23 Jan 20:23:24 20:31:13 43° 284° (WNW) 20:38:34 435.465 / 435.565
STRAND 1 23 Jan 20:41:57 20:46:09 26° 293° (WNW) 20:50:22 437.568
ISS 23 Jan 20:48:03 20:51:17 76° 140° (SE) 20:54:33 145.825
CUBEBUG 2 23 Jan 20:49:56 20:52:25 15° 267° (W) 20:54:55 437.445
FUNcube-1 23 Jan 20:52:55 20:56:48 41° 262° (W) 21:00:46 145.935
HUMSAT D 23 Jan 20:55:07 20:58:43 30° 70° (ENE) 21:02:21 437.325/437.525
PRISM 23 Jan 20:56:26 20:59:51 25° 97° (E) 21:03:13 437.425
TIGRISAT 23 Jan 21:08:56 21:09:51 11° 91° (E) 21:10:46 435.000
UWE-3 23 Jan 21:10:17 21:12:38 15° 268° (W) 21:14:59 435.000/436.395/437.385
AO-85 23 Jan 21:13:42 21:16:56 24° 50° (NE) 21:20:10 145.980
AAUSAT CUBESAT 2 23 Jan 21:15:57 21:16:04 10° 270° (W) 21:16:11 437.432
ZACube-1 23 Jan 21:19:25 21:22:25 19° 266° (W) 21:25:26 437.345
ANTELSAT 23 Jan 21:23:18 21:26:18 17° 93° (E) 21:29:20 437.575/2403.000
RS-15 23 Jan 21:32:52 21:42:18 29° 102° (ESE) 21:52:01 29.354- 29.394
Oscar 11 23 Jan 21:50:14 21:51:40 11° 269° (W) 21:53:07 145.826/435.025
DELFI C3 23 Jan 21:54:54 21:58:16 26° 264° (W) 22:01:40 145.870
BY70-1 23 Jan 22:10:31 22:13:28 48° 75° (ENE) 22:16:38 436.1900
AISAT 23 Jan 22:14:04 22:15:48 12° 63° (ENE) 22:17:31 437.250
GONETS M04 23 Jan 22:19:29 22:22:00 11° 302° (WNW) 22:24:31
ISS 23 Jan 22:25:49 22:28:06 17° 337° (NNW) 22:30:22 145.825
UNISAT 6 23 Jan 22:30:18 22:34:49 84° 282° (WNW) 22:39:23 437.425
HUMSAT D 23 Jan 22:31:20 22:34:20 19° 266° (W) 22:37:23 437.325/437.525
PRISM 23 Jan 22:31:44 22:35:01 23° 292° (WNW) 22:38:16 437.425
50 SAT 23 Jan 22:37:26 22:38:33 11° 66° (ENE) 22:39:40 437.505
TIGRISAT 23 Jan 22:42:27 22:46:54 67° 285° (WNW) 22:51:25 435.000
VELOX 1 23 Jan 22:45:04 22:48:39 25° 68° (ENE) 22:52:16 145.980
SPROUT 23 Jan 22:45:07 22:47:53 17° 67° (ENE) 22:50:40 437.525
ESTCUBE 1 23 Jan 22:49:52 22:54:23 79° 76° (ENE) 22:58:57 437.505/2401.250
AO-85 23 Jan 22:54:01 22:57:15 25° 247° (WSW) 23:00:32 145.980
PCSat 23 Jan 22:56:31 23:00:49 24° 107° (ESE) 23:05:07 145.827
UKube-1 23 Jan 22:57:38 22:59:02 11° 63° (ENE) 23:00:26 .
JAS-2 23 Jan 22:58:35 23:05:57 63° 101° (E) 23:13:44 435.910
ANTELSAT 23 Jan 22:58:55 23:03:08 41° 288° (WNW) 23:07:26 437.575/2403.000
DX 1 23 Jan 23:04:35 23:07:40 19° 66° (ENE) 23:10:46 434.975-435.025
QB50P1 23 Jan 23:09:57 23:13:18 22° 95° (E) 23:16:39 145.935-145.965
POLYITAN 1 23 Jan 23:15:13 23:18:49 26° 96° (E) 23:22:23 437.675
QB50P2 23 Jan 23:16:32 23:20:14 29° 97° (E) 23:23:57 145.880/145.840
CUBEBUG 1 23 Jan 23:20:16 23:24:41 82° 259° (W) 23:29:05 437.445
BEESAT 3 23 Jan 23:23:38 23:26:38 20° 48° (NE) 23:29:38 437.485
POPSAT HIP 1 23 Jan 23:36:44 23:40:48 45° 99° (E) 23:44:52 437.405
RS-15 23 Jan 23:41:39 23:53:31 77° 303° (WNW) 00:05:57 29.354- 29.394
DUCHIFAT 1 23 Jan 23:42:27 23:46:30 45° 99° (E) 23:50:32 145.980
YUBILEINY 23 Jan 23:43:07 23:49:54 24° 67° (ENE) 23:56:34 435.215
AISAT 23 Jan 23:47:18 23:51:42 63° 259° (WSW) 23:56:07 437.250
NANOSAT C BR1 23 Jan 23:50:03 23:54:15 62° 101° (E) 23:58:25 145.865
AIST 1 23 Jan 23:55:01 23:58:20 22° 74° (ENE) 00:01:37
TISAT 1 23 Jan 23:59:09 00:01:41 16° 66° (ENE) 00:04:13 437.305
BUGSAT 1 24 Jan 00:01:12 00:04:32 24° 96° (E) 00:07:52 437.445
50 SAT 24 Jan 00:07:57 00:11:20 42° 260° (W) 00:14:46 437.505
BEESAT 2 24 Jan 00:16:46 00:20:22 30° 52° (NE) 00:23:57 435.950
SPROUT 24 Jan 00:19:33 00:23:29 38° 262° (W) 00:27:28 437.525
VELOX 1 24 Jan 00:21:09 00:24:59 28° 263° (W) 00:28:49 145.980
Cosmos 2504 24 Jan 00:23:27 00:28:17 19° 66° (ENE) 00:33:03 435.465 / 435.565
PHONESAT 2.4 24 Jan 00:27:25 00:29:35 54° 161° (SSE) 00:31:46 2401.200-2431.200
UKube-1 24 Jan 00:30:13 00:34:30 64° 258° (WSW) 00:38:48 .
Cosmos 2491 24 Jan 00:32:55 00:39:33 25° 82° (E) 00:46:11 435.465 / 435.565
PCSat 24 Jan 00:38:47 00:43:55 43° 304° (NW) 00:49:06 145.827
DX 1 24 Jan 00:39:34 00:43:35 36° 262° (W) 00:47:38 434.975-435.025
JAS-2 24 Jan 00:44:30 00:50:28 28° 296° (WNW) 00:56:43 435.910
QB50P1 24 Jan 00:45:26 00:49:02 28° 290° (WNW) 00:52:37 145.935-145.965
POLYITAN 1 24 Jan 00:51:04 00:54:29 24° 291° (WNW) 00:57:54 437.675
QB50P2 24 Jan 00:52:36 00:55:52 22° 292° (WNW) 00:59:07 145.880/145.840
BEESAT 24 Jan 00:57:52 01:00:44 16° 64° (ENE) 01:03:35 436.000
SWISSCUBE 24 Jan 00:59:29 01:02:44 19° 65° (ENE) 01:06:00 437.505
BEESAT 3 24 Jan 01:00:40 01:04:22 36° 245° (WSW) 01:08:01 437.485
POPSAT HIP 1 24 Jan 01:13:48 01:16:11 15° 294° (WNW) 01:18:33 437.405
Oscar 19 24 Jan 01:16:52 01:21:48 44° 99° (E) 01:26:40 437.125/150
DUCHIFAT 1 24 Jan 01:19:27 01:21:47 15° 295° (WNW) 01:24:07 145.980
NANOSAT C BR1 24 Jan 01:28:11 01:29:25 11° 296° (WNW) 01:30:38 145.865
AIST 1 24 Jan 01:32:18 01:35:53 26° 270° (W) 01:39:25
TISAT 1 24 Jan 01:33:03 01:36:58 40° 261° (W) 01:40:54 437.305
BUGSAT 1 24 Jan 01:36:33 01:39:48 24° 291° (WNW) 01:43:03 437.445
YUBILEINY 24 Jan 01:38:43 01:47:28 71° 267° (W) 01:56:09 435.215
CUSAT 1 24 Jan 01:40:10 01:44:13 21° 81° (E) 01:48:57 437.405
ISS 24 Jan 01:41:41 01:43:20 13° 18° (NNE) 01:44:59 145.825
MOZHAYETS 4 24 Jan 01:54:24 01:57:20 17° 65° (ENE) 02:00:18
BEESAT 2 24 Jan 01:54:48 01:58:00 23° 248° (WSW) 02:01:11 435.950
RS-15 24 Jan 01:58:37 02:08:31 28° 331° (NNW) 02:18:40 29.354- 29.394
PHONESAT 2.4 24 Jan 02:01:12 02:03:22 49° 358° (N) 02:05:32 2401.200-2431.200
ITUPSAT 1 24 Jan 02:01:25 02:06:08 70° 75° (ENE) 02:10:54 437.325
Gurwin Techsat 1B 24 Jan 02:03:19 02:08:37 66° 101° (E) 02:13:54 435.225
ITAMSAT 1 24 Jan 02:10:30 02:13:03 14° 91° (E) 02:15:35 435.822/435.867
Cosmos 2504 24 Jan 02:15:10 02:22:26 71° 266° (W) 02:29:32 435.465 / 435.565
Cosmos 2491 24 Jan 02:27:00 02:35:36 65° 280° (W) 02:44:18 435.465 / 435.565
BEESAT 24 Jan 02:33:24 02:38:02 53° 259° (W) 02:42:43 436.000
SWISSCUBE 24 Jan 02:35:37 02:40:09 45° 261° (W) 02:44:44 437.505
AO-7 24 Jan 02:42:15 02:48:51 25° 95° (E) 02:55:22 29.400- 29.500
AIST 2 24 Jan 02:50:54 02:54:33 27° 51° (NE) 02:58:11 435.215
M-CUBED/EXP-1 PRIME 24 Jan 02:52:10 02:56:05 36° 68° (ENE) 02:59:46 437.505
CUBESAT XI-V 24 Jan 02:53:09 02:54:21 11° 62° (ENE) 02:55:31 437.345
Oscar 19 24 Jan 02:56:55 03:00:47 22° 295° (WNW) 03:04:37 437.125/150
DANDE 24 Jan 03:11:05 03:14:45 31° 87° (E) 03:19:27 436.750
ISS 24 Jan 03:17:10 03:20:22 58° 36° (NE) 03:23:34 145.825
CUSAT 1 24 Jan 03:19:57 03:25:17 55° 285° (WNW) 03:32:07 437.405
AUBIESAT-1 24 Jan 03:24:56 03:29:08 70° 71° (ENE) 03:33:02 437.475
MOZHAYETS 4 24 Jan 03:29:45 03:34:07 45° 261° (W) 03:38:32
PHONESAT 2.4 24 Jan 03:35:00 03:37:13 85° 13° (NNE) 03:39:25 2401.200-2431.200
KKS-1 24 Jan 03:38:57 03:43:22 71° 75° (ENE) 03:47:48 437.445
YUBILEINY 24 Jan 03:40:06 03:42:32 11° 286° (WNW) 03:44:58 435.215
ITUPSAT 1 24 Jan 03:43:06 03:44:26 11° 270° (W) 03:45:45 437.325
Gurwin Techsat 1B 24 Jan 03:44:52 03:47:59 16° 298° (WNW) 03:51:05 435.225
ITAMSAT 1 24 Jan 03:47:46 03:52:57 67° 287° (WNW) 03:58:07 435.822/435.867
BRITE-PL 24 Jan 04:04:22 04:06:45 14° 89° (E) 04:09:04 437.365/2234.400
RS-15 24 Jan 04:18:56 04:27:10 19° 7° (N) 04:35:21 29.354- 29.394
STARS 24 Jan 04:20:25 04:24:48 89° 272° (W) 04:29:12 437.465
CUBESAT XI-V 24 Jan 04:26:19 04:31:01 79° 258° (WSW) 04:35:45 437.345
M-CUBED/EXP-1 PRIME 24 Jan 04:27:37 04:30:34 18° 260° (W) 04:33:25 437.505
AIST 2 24 Jan 04:29:20 04:32:58 28° 247° (WSW) 04:36:35 435.215
Cosmos 2491 24 Jan 04:32:03 04:34:23 11° 302° (WNW) 04:36:42 435.465 / 435.565
AO-7 24 Jan 04:33:52 04:42:08 67° 292° (WNW) 04:50:20 29.400- 29.500
GONETS M04 24 Jan 04:34:52 04:36:15 10° 57° (ENE) 04:37:37
HORYU 2 24 Jan 04:42:04 04:44:32 15° 93° (E) 04:47:00 437.375
O/OREOS (USA 219) 24 Jan 04:43:23 04:46:47 22° 102° (ESE) 04:50:12 437.305
DANDE 24 Jan 04:54:11 04:57:37 22° 295° (WNW) 05:01:52 436.750
ISS 24 Jan 04:54:55 04:56:29 13° 231° (SW) 04:58:03 145.825
PHONESAT 2.4 24 Jan 05:09:14 05:10:45 16° 208° (SSW) 05:12:16 2401.200-2431.200
GOMX 1 24 Jan 05:23:14 05:27:13 36° 97° (E) 05:31:03 467.674
CUTE-I 24 Jan 05:29:32 05:33:15 19° 93° (E) 05:36:56 437.470
DOVE 4 24 Jan 05:41:01 05:44:08 20° 94° (E) 05:47:14 437.250
BRITE-PL 24 Jan 05:41:06 05:45:39 49° 287° (WNW) 05:49:52 437.365/2234.400
SO-50 24 Jan 05:44:20 05:47:20 17° 109° (ESE) 05:50:19 436.795
NOAA 15 24 Jan 06:06:41 06:11:46 44° 99° (E) 06:16:46 137.62
Cubesat XI-IV 24 Jan 06:13:02 06:18:13 48° 100° (E) 06:23:22 437.490
Cosmos 2499 24 Jan 06:15:41 06:22:42 61° 80° (E) 06:29:42 435.465 / 435.565
STRAND 1 24 Jan 06:16:57 06:21:46 45° 71° (ENE) 06:26:36 437.568
HORYU 2 24 Jan 06:17:01 06:21:18 48° 288° (WNW) 06:25:36 437.375
O/OREOS (USA 219) 24 Jan 06:21:57 06:25:58 32° 298° (WNW) 06:29:59 437.305
LilacSat-2 24 Jan 06:23:20 06:27:13 82° 102° (ESE) 06:31:06 437.200
GONETS M04 24 Jan 06:26:23 06:35:09 61° 79° (E) 06:43:52
AO-7 24 Jan 06:29:17 06:33:20 15° 312° (NW) 06:37:23 29.400- 29.500
RS-15 24 Jan 06:33:29 06:44:48 39° 40° (NE) 06:55:45 29.354- 29.394
CINEMA 3 24 Jan 06:38:14 06:41:25 20° 95° (E) 06:44:40 145.822/145.860
CUTE 1.7 + AOD 2 24 Jan 06:45:33 06:47:31 13° 91° (E) 06:49:28 437.475
NOAA 18 24 Jan 06:52:09 06:57:32 59° 102° (ESE) 07:02:55 137.9125
GOMX 1 24 Jan 07:02:13 07:05:00 17° 294° (WNW) 07:07:45 467.674
CUTE-I 24 Jan 07:08:23 07:13:32 51° 288° (WNW) 07:18:42 437.470
CANX-2 24 Jan 07:14:07 07:18:00 32° 97° (E) 07:21:52 2200.000
COMPASS 1 24 Jan 07:15:03 07:16:26 11° 91° (E) 07:17:48 437.405
SEEDS 24 Jan 07:16:36 07:19:41 19° 93° (E) 07:22:45 437.485
DOVE 4 24 Jan 07:18:18 07:21:51 28° 290° (WNW) 07:25:24 437.250
HO-68 24 Jan 07:20:59 07:27:41 41° 99° (E) 07:34:19 435.675
SO-50 24 Jan 07:22:47 07:27:24 52° 305° (NW) 07:31:58 436.795
AAUSAT CUBESAT 2 24 Jan 07:22:50 07:23:08 10° 90° (E) 07:23:27 437.432
PRISM 24 Jan 07:45:07 07:47:45 17° 66° (ENE) 07:50:24 437.425
PCSat 24 Jan 07:45:25 07:49:04 18° 46° (NE) 07:52:40 145.827
NOAA 15 24 Jan 07:47:09 07:51:13 23° 295° (WNW) 07:55:15 137.62
Cubesat XI-IV 24 Jan 07:53:59 07:57:54 21° 296° (WNW) 08:01:49 437.490
STRAND 1 24 Jan 07:57:28 08:01:07 20° 267° (W) 08:04:48 437.568
Oscar 11 24 Jan 08:01:41 08:03:10 11° 91° (E) 08:04:39 145.826/435.025
Cosmos 2499 24 Jan 08:10:13 08:15:07 20° 277° (W) 08:20:02 435.465 / 435.565
CINEMA 3 24 Jan 08:14:49 08:18:34 31° 289° (WNW) 08:22:25 145.822/145.860
CUTE 1.7 + AOD 2 24 Jan 08:19:27 08:23:37 49° 286° (WNW) 08:27:44 437.475
ANTELSAT 24 Jan 08:22:17 08:24:07 13° 64° (ENE) 08:25:56 437.575/2403.000
GONETS M04 24 Jan 08:24:16 08:31:17 28° 278° (W) 08:38:19
NOAA 18 24 Jan 08:34:04 08:37:42 18° 298° (WNW) 08:41:19 137.9125
CUBEBUG 2 24 Jan 08:39:23 08:43:47 75° 283° (WNW) 08:48:19 437.445
FUNcube-1 24 Jan 08:41:33 08:45:43 38° 98° (E) 08:49:55 145.935
RS-15 24 Jan 08:46:07 08:58:21 73° 245° (WSW) 09:10:03 29.354- 29.394
COMPASS 1 24 Jan 08:48:10 08:52:16 53° 286° (WNW) 08:56:20 437.405
CANX-2 24 Jan 08:50:28 08:53:37 20° 292° (WNW) 08:56:45 2200.000
SEEDS 24 Jan 08:51:37 08:55:25 32° 289° (WNW) 08:59:10 437.485
AAUSAT CUBESAT 2 24 Jan 08:54:50 08:58:57 59° 286° (WNW) 09:03:01 437.432
UWE-3 24 Jan 08:58:26 09:02:52 74° 284° (WNW) 09:07:24 435.000/436.395/437.385
ZACube-1 24 Jan 09:07:04 09:11:32 83° 103° (ESE) 09:16:03 437.345
HO-68 24 Jan 09:08:50 09:15:16 37° 296° (WNW) 09:21:40 435.675
JAS-2 24 Jan 09:11:59 09:15:52 20° 60° (ENE) 09:20:00 435.910
PRISM 24 Jan 09:18:49 09:22:43 38° 261° (W) 09:26:38 437.425
PCSat 24 Jan 09:27:36 09:33:01 73° 245° (WSW) 09:38:24 145.827
UNISAT 6 24 Jan 09:27:44 09:31:57 71° 76° (ENE) 09:36:13 437.425
DELFI C3 24 Jan 09:32:45 09:36:32 40° 98° (E) 09:40:16 145.870
Oscar 11 24 Jan 09:35:21 09:39:38 57° 286° (WNW) 09:43:54 145.826/435.025
TIGRISAT 24 Jan 09:39:39 09:43:52 89° 103° (ESE) 09:48:09 435.000
ANTELSAT 24 Jan 09:56:11 10:00:20 54° 260° (W) 10:04:31 437.575/2403.000
QB50P1 24 Jan 10:02:02 10:04:25 15° 66° (ENE) 10:06:48 145.935-145.965
POLYITAN 1 24 Jan 10:07:16 10:10:00 17° 67° (ENE) 10:12:45 437.675
QB50P2 24 Jan 10:08:25 10:11:23 19° 67° (ENE) 10:14:21 145.880/145.840
HUMSAT D 24 Jan 10:14:20 10:18:38 71° 102° (ESE) 10:22:55 437.325/437.525
FUNcube-1 24 Jan 10:18:33 10:21:40 19° 293° (WNW) 10:24:48 145.935
POPSAT HIP 1 24 Jan 10:28:03 10:31:37 28° 70° (ENE) 10:35:13 437.405
DUCHIFAT 1 24 Jan 10:33:09 10:36:40 27° 70° (ENE) 10:40:13 145.980
NANOSAT C BR1 24 Jan 10:40:45 10:44:36 37° 72° (ENE) 10:48:27 145.865
ESTCUBE 1 24 Jan 10:44:40 10:47:48 18° 93° (E) 10:50:55 437.505/2401.250
BY70-1 24 Jan 10:46:02 10:48:45 27° 96° (E) 10:51:16 436.1900
Cosmos 2491 24 Jan 10:47:20 10:48:39 10° 57° (ENE) 10:49:59 435.465 / 435.565
BUGSAT 1 24 Jan 10:50:39 10:52:57 15° 66° (ENE) 10:55:14 437.445
JAS-2 24 Jan 10:55:05 11:00:20 55° 261° (W) 11:06:11 435.910
RS-15 24 Jan 11:02:39 11:08:26 15° 265° (W) 11:14:09 29.354- 29.394
DELFI C3 24 Jan 11:08:49 11:10:58 14° 294° (WNW) 11:13:05 145.870
CUBEBUG 1 24 Jan 11:10:59 11:14:08 20° 94° (E) 11:17:16 437.445
AO-85 24 Jan 11:28:35 11:30:31 12° 109° (ESE) 11:32:24 145.980
QB50P1 24 Jan 11:35:49 11:39:48 43° 261° (W) 11:43:49 145.935-145.965
50 SAT 24 Jan 11:35:53 11:37:43 13° 93° (E) 11:39:32 437.505
AISAT 24 Jan 11:39:05 11:42:45 26° 96° (E) 11:46:23 437.250
POLYITAN 1 24 Jan 11:41:37 11:45:29 37° 262° (W) 11:49:23 437.675
QB50P2 24 Jan 11:43:08 11:46:55 33° 262° (W) 11:50:45 145.880/145.840
Gurwin Techsat 1B 24 Jan 11:47:32 11:49:11 11° 59° (ENE) 11:50:51 435.225
HUMSAT D 24 Jan 11:53:01 11:53:37 10° 297° (WNW) 11:54:14 437.325/437.525
POPSAT HIP 1 24 Jan 12:04:08 12:07:22 22° 265° (W) 12:10:37 437.405
SPROUT 24 Jan 12:06:18 12:10:16 36° 98° (E) 12:14:13 437.525
DUCHIFAT 1 24 Jan 12:09:04 12:12:19 22° 265° (W) 12:15:34 145.980
VELOX 1 24 Jan 12:11:41 12:16:01 57° 101° (E) 12:20:20 145.980
CUSAT 1 24 Jan 12:13:58 12:19:27 20° 63° (ENE) 12:24:33 437.405
BY70-1 24 Jan 12:17:39 12:18:35 11° 294° (WNW) 12:19:31 436.1900
NANOSAT C BR1 24 Jan 12:17:47 12:20:26 16° 267° (W) 12:23:05 145.865
UKube-1 24 Jan 12:19:07 12:22:30 22° 95° (E) 12:25:51 .
ESTCUBE 1 24 Jan 12:20:31 12:24:43 39° 289° (WNW) 12:28:54 437.505/2401.250
AIST 1 24 Jan 12:24:04 12:26:22 14° 86° (E) 12:28:39
BUGSAT 1 24 Jan 12:24:10 12:27:58 40° 261° (W) 12:31:47 437.445
DX 1 24 Jan 12:28:41 12:32:46 40° 99° (E) 12:36:49 434.975-435.025
Oscar 19 24 Jan 12:32:10 12:37:14 56° 73° (ENE) 12:42:20 437.125/150
Cosmos 2491 24 Jan 12:38:50 12:47:33 61° 79° (E) 12:56:14 435.465 / 435.565
YUBILEINY 24 Jan 12:42:52 12:49:57 28° 83° (E) 12:57:02 435.215
CUBEBUG 1 24 Jan 12:46:36 12:50:27 33° 290° (WNW) 12:54:18 437.445
Cosmos 2504 24 Jan 13:00:57 13:06:14 18° 81° (E) 13:11:21 435.465 / 435.565
AO-85 24 Jan 13:05:47 13:10:31 67° 303° (WNW) 13:14:53 145.980
50 SAT 24 Jan 13:07:51 13:11:00 30° 288° (WNW) 13:14:07 437.505
AISAT 24 Jan 13:15:29 13:19:07 26° 291° (WNW) 13:22:44 437.250
TISAT 1 24 Jan 13:18:00 13:21:44 31° 97° (E) 13:25:27 437.305
JUGNU 24 Jan 13:21:43 13:23:20 11° 177° (S) 13:24:58 437.505
Gurwin Techsat 1B 24 Jan 13:23:00 13:28:19 90° 52° (NE) 13:33:40 435.225
ITAMSAT 1 24 Jan 13:26:52 13:30:30 20° 64° (ENE) 13:34:09 435.822/435.867
AO-7 24 Jan 13:39:48 13:46:58 33° 59° (ENE) 13:54:10 29.400- 29.500
SPROUT 24 Jan 13:43:02 13:45:54 18° 293° (WNW) 13:48:46 437.525
DANDE 24 Jan 13:47:45 13:55:15 39° 73° (ENE) 14:02:48 436.750
VELOX 1 24 Jan 13:50:00 13:51:57 13° 297° (WNW) 13:53:55 145.980
CUSAT 1 24 Jan 13:54:27 14:02:26 84° 262° (W) 14:09:20 437.405
UKube-1 24 Jan 13:54:47 13:58:30 29° 291° (WNW) 14:02:13 .
AIST 1 24 Jan 13:59:23 14:03:32 43° 281° (WNW) 14:07:41
ITUPSAT 1 24 Jan 14:04:05 14:07:34 20° 94° (E) 14:11:02 437.325
DX 1 24 Jan 14:05:47 14:08:37 17° 294° (WNW) 14:11:27 434.975-435.025
Oscar 19 24 Jan 14:13:42 14:16:52 16° 268° (W) 14:20:04 437.125/150
SO-50 24 Jan 14:16:37 14:18:44 13° 41° (NE) 14:20:49 436.795
BEESAT 24 Jan 14:34:42 14:39:16 42° 99° (E) 14:43:47 436.000
Cosmos 2491 24 Jan 14:36:45 14:43:42 27° 278° (W) 14:50:41 435.465 / 435.565
SWISSCUBE 24 Jan 14:36:46 14:41:27 50° 100° (E) 14:46:05 437.505
YUBILEINY 24 Jan 14:37:26 14:46:05 60° 281° (WNW) 14:54:50 435.215
BEESAT 3 24 Jan 14:48:58 14:52:41 46° 116° (ESE) 14:56:28 437.485
Cosmos 2504 24 Jan 14:50:01 14:58:41 83° 276° (W) 15:06:49 435.465 / 435.565
O/OREOS (USA 219) 24 Jan 14:53:36 14:57:44 34° 63° (ENE) 15:01:52 437.305
TISAT 1 24 Jan 14:54:05 14:57:09 20° 292° (WNW) 15:00:12 437.305
SRMSAT 24 Jan 15:00:58 15:01:39 10° 172° (S) 15:02:20 437.500
ITAMSAT 1 24 Jan 15:04:35 15:09:34 49° 260° (W) 15:14:35 435.822/435.867
BRITE-PL 24 Jan 15:12:22 15:16:22 20° 65° (ENE) 15:20:18 437.365/2234.400
MOZHAYETS 4 24 Jan 15:25:47 15:30:15 45° 99° (E) 15:34:41
DANDE 24 Jan 15:30:18 15:38:04 48° 269° (W) 15:45:49 436.750
AO-7 24 Jan 15:31:09 15:39:18 56° 257° (WSW) 15:47:32 29.400- 29.500
KKS-1 24 Jan 15:32:36 15:35:05 15° 93° (E) 15:37:33 437.445
CUSAT 1 24 Jan 15:39:03 15:42:56 15° 282° (WNW) 15:46:37 437.405
HORYU 2 24 Jan 15:39:51 15:41:37 12° 63° (ENE) 15:43:23 437.375
ITUPSAT 1 24 Jan 15:41:01 15:45:32 41° 289° (WNW) 15:50:00 437.325
BEESAT 2 24 Jan 15:43:55 15:47:50 83° 123° (ESE) 15:51:50 435.950
SO-50 24 Jan 15:55:18 15:59:49 86° 237° (WSW) 16:04:16 436.795
M-CUBED/EXP-1 PRIME 24 Jan 16:06:45 16:09:29 24° 102° (ESE) 16:12:12 437.505
STARS 24 Jan 16:12:02 16:15:00 18° 94° (E) 16:17:58 437.465
BEESAT 24 Jan 16:13:16 16:16:43 20° 295° (WNW) 16:20:09 436.000
SWISSCUBE 24 Jan 16:15:43 16:18:48 17° 296° (WNW) 16:21:53 437.505
CUBESAT XI-V 24 Jan 16:24:38 16:28:39 28° 95° (E) 16:32:39 437.345
BEESAT 3 24 Jan 16:28:05 16:30:33 16° 314° (NW) 16:33:03 437.485
GOMX 1 24 Jan 16:28:55 16:33:51 40° 72° (ENE) 16:38:33 467.674
O/OREOS (USA 219) 24 Jan 16:33:32 16:36:53 21° 259° (WSW) 16:40:14 437.305
AUBIESAT-1 24 Jan 16:38:50 16:42:05 55° 105° (ESE) 16:45:20 437.475
NOAA 18 24 Jan 16:40:18 16:42:45 13° 59° (ENE) 16:45:10 137.9125
YUBILEINY 24 Jan 16:44:27 16:45:01 10° 304° (WNW) 16:45:35 435.215
DOVE 4 24 Jan 16:44:56 16:48:36 22° 69° (ENE) 16:52:08 437.250
SRMSAT 24 Jan 16:47:54 16:49:54 12° 182° (S) 16:51:54 437.500
Cosmos 2504 24 Jan 16:48:35 16:53:10 15° 296° (WNW) 16:57:37 435.465 / 435.565
BRITE-PL 24 Jan 16:48:47 16:54:22 57° 260° (W) 16:59:51 437.365/2234.400
CUTE-I 24 Jan 16:49:53 16:54:19 28° 67° (ENE) 16:58:45 437.470
MOZHAYETS 4 24 Jan 17:03:58 17:07:02 18° 294° (WNW) 17:10:05
LilacSat-2 24 Jan 17:04:02 17:07:22 31° 72° (ENE) 17:10:45 437.200
KKS-1 24 Jan 17:07:37 17:11:52 46° 288° (WNW) 17:16:05 437.445
HORYU 2 24 Jan 17:13:16 17:17:37 61° 259° (W) 17:22:00 437.375
BEESAT 2 24 Jan 17:25:06 17:26:11 11° 318° (NW) 17:27:16 435.950
NOAA 15 24 Jan 17:25:15 17:30:28 62° 73° (ENE) 17:35:43 137.62
Cubesat XI-IV 24 Jan 17:33:39 17:38:55 70° 74° (ENE) 17:44:13 437.490
GONETS M04 24 Jan 17:36:11 17:38:48 12° 74° (ENE) 17:41:24
CINEMA 3 24 Jan 17:39:26 17:42:07 16° 67° (ENE) 17:44:45 145.822/145.860
M-CUBED/EXP-1 PRIME 24 Jan 17:41:52 17:43:48 15° 297° (WNW) 17:45:43 437.505
STARS 24 Jan 17:47:25 17:51:27 37° 289° (WNW) 17:55:29 437.465
HO-68 24 Jan 17:48:52 17:54:41 28° 61° (ENE) 18:00:32 435.675
CUBESAT XI-V 24 Jan 18:02:01 18:05:56 27° 291° (WNW) 18:09:48 437.345
CANX-2 24 Jan 18:06:01 18:09:10 20° 68° (ENE) 18:12:19 2200.000
GOMX 1 24 Jan 18:07:45 18:11:57 23° 265° (W) 18:16:02 467.674
SEEDS 24 Jan 18:08:24 18:10:05 12° 64° (ENE) 18:11:46 437.485
